sat.trackr.live / text

‹ back to catalog

STARLINK-5844

NORAD 57068 · 2023-088W

PAYLOAD ACTIVE UNKNOWN

§ Identity

Operator
Country
US
Launch date
2023-06-22
Launch site
AFWTR
Launch vehicle
Mass (kg)
RCS (m²)

Purposes: comms

External: N2YO · Heavens-Above · Gunter

§ Orbital elements

Epoch: 2026-09-20T21:20:31.544736Z

Period
94.27 min
Inclination
43.0022°
Eccentricity
0.0000587
Mean motion
15.27606140 rev/d
Perigee alt
482.6 km
Apogee alt
483.4 km
Semi-major
6,861.1 km
B*
-2.2122e-4
RAAN
91.8521°
Arg perigee
303.7766°
Mean anomaly
56.3029°
Rev number
18,014

§ Raw data

STARLINK-58441 57068U 23088W   26263.88925399 -.00006349  00000+0 -22122-3 0  99942 57068  43.0022  91.8521 0000587 303.7766  56.3029 15.27606140180148

JSON: /api/v1/satellites/57068 · /tle

For live sub-satellite position, see the globe view (requires WebGL).

§ Visibility from observer

Set your observer location to see the next 7 days of passes ≥ 10°. The values pass through the URL so the page stays shareable.

No JS? Fill the form by hand. The geolocation button needs JavaScript.